Mountain Home, AR

11:22 PM CST on January 19, 2018 (GMT -0600)
Baxter County Regional

Weather History for KBPK - March, 2013

Change the Weather History Date:

Saturday, March 16, 2013

  Actual Average (KFLP) Record (KFLP)
Temperature  
Mean Temperature 62 °F -  
Max Temperature 77 °F 57 °F 77 °F (2015)
Min Temperature 50 °F 36 °F 24 °F (1997)
Degree Days  
Heating Degree Days 2    
Growing Degree Days 12 (Base 50)    
Moisture  
Dew Point 41 °F    
Average Humidity 45    
Maximum Humidity 61    
Minimum Humidity 33    
Precipitation  
Precipitation 0.00 in - - ()
Sea Level Pressure  
Sea Level Pressure 29.80 in    
Wind  
Wind Speed 6 mph (ENE)    
Max Wind Speed 16 mph    
Max Gust Speed 23 mph    
Visibility 9 miles    
Events      
Averages and records for this station are not official NWS values.
T = Trace of Precipitation, MM = Missing Value Source: NWS Daily Summary

Daily Weather History Graph

Daily Weather History Graph

Search for Another Location

Airport or City:

Trip Planner

Search our weather history database for the weather conditions in past years. The results will help you decide how hot, cold, wet, or windy it might be!

Date:

Astronomy

Mar. 16, 2013 Rise Set
Actual Time 7:18 AM CDT 7:18 PM CDT
Civil Twilight 6:53 AM CDT 7:44 PM CDT
Nautical Twilight 6:23 AM CDT 8:14 PM CDT
Astronomical Twilight 5:53 AM CDT 8:44 PM CDT
Moon 9:57 AM CDT (3/16) No Moon Set
Length of Visible Light 12h 50m
Length of Day
11h 59m
Waxing Crescent, 23% of the Moon is Illuminated
Mar 16
Waxing Crescent
Mar 19
First Quarter
Mar 27
Full
Apr 2
Last Quarter
Apr 10
New

Hourly Weather History & Observations

Time (CDT) Temp. Dew Point Humidity Pressure Visibility Wind Dir Wind Speed Gust Speed Precip Events Conditions
1:53 AM 63.0 °F 43.0 °F 48% 29.75 in 10.0 mi SW 5.8 mph - N/A   Clear
2:53 AM 64.0 °F 42.1 °F 45% 29.75 in 10.0 mi SW 5.8 mph - N/A   Clear
3:53 AM 62.1 °F 41.0 °F 46% 29.75 in 10.0 mi SW 4.6 mph - N/A   Clear
4:53 AM 63.0 °F 41.0 °F 45% 29.74 in 10.0 mi SW 6.9 mph - N/A   Clear
5:53 AM 62.1 °F 41.0 °F 46% 29.75 in 10.0 mi SW 5.8 mph - N/A   Clear
6:53 AM 60.1 °F 41.0 °F 49% 29.78 in 10.0 mi Calm Calm - N/A   Clear
7:53 AM 60.1 °F 41.0 °F 49% 29.81 in 10.0 mi Calm Calm - N/A   Clear
8:53 AM 62.1 °F 43.0 °F 50% 29.82 in 10.0 mi SSW 4.6 mph - N/A   Clear
9:53 AM 66.9 °F 43.0 °F 42% 29.83 in 10.0 mi West 4.6 mph - N/A   Clear
10:53 AM 69.1 °F 43.0 °F 39% 29.83 in 10.0 mi Variable 4.6 mph - N/A   Clear
11:53 AM 71.1 °F 44.1 °F 38% 29.83 in 10.0 mi Variable 6.9 mph - N/A   Clear
12:53 PM 73.9 °F 44.1 °F 34% 29.82 in 10.0 mi Calm Calm - N/A   Clear
1:53 PM 73.9 °F 44.1 °F 34% 29.81 in 10.0 mi NNE 3.5 mph - N/A   Clear
2:53 PM 75.0 °F 44.1 °F 33% 29.77 in 10.0 mi Calm Calm - N/A   Clear
3:53 PM 73.9 °F 44.1 °F 34% 29.76 in 9.0 mi East 5.8 mph - N/A   Clear
4:53 PM 73.0 °F 45.0 °F 37% 29.75 in 9.0 mi NNE 11.5 mph 20.7 mph N/A   Clear
5:53 PM 69.1 °F 43.0 °F 39% 29.75 in 10.0 mi NE 13.8 mph 19.6 mph N/A   Clear
6:53 PM 62.1 °F 39.9 °F 44% 29.79 in 9.0 mi NE 9.2 mph - N/A   Clear
7:53 PM 57.0 °F 37.9 °F 49% 29.81 in 8.0 mi ENE 16.1 mph 23.0 mph N/A   Scattered Clouds
8:53 PM 54.0 °F 37.9 °F 55% 29.84 in 7.0 mi NE 8.1 mph - N/A   Mostly Cloudy
9:53 PM 51.1 °F 37.0 °F 59% 29.88 in 7.0 mi NE 8.1 mph - N/A   Mostly Cloudy
10:53 PM 50.0 °F 37.0 °F 61% 29.89 in 7.0 mi ENE 8.1 mph - N/A   Overcast
11:53 PM 50.0 °F 37.0 °F 61% 29.88 in 7.0 mi ENE 6.9 mph - N/A   Overcast